This is the latest recevied weather packets stored in our database for station/object AG1T-20. If no packets are shown the sender has not sent any weather packets the latest 10 day(s).
| Time | Temp. | Humidity | Pressure | Rain* | Wind** | Luminosity | Snow |
|---|---|---|---|---|---|---|---|
| 1777824005 | 12.78° C | 49% | 1019 hPa | 0 mm | - | 878 W/m² | - |
| 1777823405 | 11.67° C | 49% | 1019.4 hPa | 0 mm | - | 943 W/m² | - |
| 1777822805 | 11.67° C | 52% | 1019.4 hPa | 0 mm | - | 808 W/m² | - |
| 1777822205 | 11.11° C | 49% | 1019.4 hPa | 0 mm | - | 859 W/m² | - |
| 1777821605 | 10° C | 51% | 1019.4 hPa | 0 mm | - | 533 W/m² | - |
| 1777821005 | 9.44° C | 57% | 1019.4 hPa | 0 mm | - | 764 W/m² | - |
| 1777820405 | 8.89° C | 58% | 1019.4 hPa | 0 mm | - | 718 W/m² | - |
| 1777819805 | 8.33° C | 65% | 1019.6 hPa | 0 mm | - | 655 W/m² | - |
| 1777819205 | 7.22° C | 63% | 1019.6 hPa | 0 mm | - | 660 W/m² | - |
| 1777818605 | 7.22° C | 64% | 1019.6 hPa | 0 mm | - | 627 W/m² | - |
| 1777818005 | 6.11° C | 66% | 1019.6 hPa | 0 mm | - | 586 W/m² | - |
| 1777817405 | 6.11° C | 64% | 1019.6 hPa | 0 mm | - | 495 W/m² | - |
| 1777816805 | 6.11° C | 65% | 1019.6 hPa | 0 mm | - | 467 W/m² | - |
| 1777816205 | 6.67° C | 61% | 1019.2 hPa | 0 mm | - | 471 W/m² | - |
| 1777815605 | 5° C | 66% | 1019.2 hPa | 0 mm | - | 393 W/m² | - |
| 1777815005 | 5° C | 70% | 1019.2 hPa | 0 mm | - | 363 W/m² | - |
| 1777814405 | 3.89° C | 74% | 1019.2 hPa | 0 mm | - | 336 W/m² | - |
| 1777813805 | 2.78° C | 74% | 1019.2 hPa | 0 mm | - | 42 W/m² | - |
| 1777813205 | 3.33° C | 74% | 1019.2 hPa | 0 mm | - | 32 W/m² | - |
| 1777812605 | 2.78° C | 72% | 1018.7 hPa | 0 mm | - | 24 W/m² | - |
| 1777812005 | 2.22° C | 78% | 1018.7 hPa | 0 mm | - | 16 W/m² | - |
| 1777811405 | 1.67° C | 79% | 1018.7 hPa | 0 mm | - | 9 W/m² | - |
| 1777810805 | 1.67° C | 79% | 1018.7 hPa | 0 mm | - | 4 W/m² | - |
| 1777810205 | 2.22° C | 76% | 1018.7 hPa | 0 mm | - | 1 W/m² | - |
| 1777809605 | 2.78° C | 76% | 1018.7 hPa | 0 mm | - | 0 W/m² | - |
* Rain latest hour (hover to see other rain measurements)
** Current wind speed in m/s (hover to see current wind gust speed)